"Pseudo-MPEC" for C0MAAF5

Created 2023 Nov 21 7:22:03 UT using Find_Orb

Click here for an explanation of pseudo-MPECs

 
 Astrometry: 
     C0MAAF5* C2023 11 11.41870505 56 34.602+46 37 08.44   ~BBAq 22.36GVNEOCPV00
     C0MAAF5  C2023 11 11.42420605 56 32.384+46 37 32.52   ~BBAq 22.23GVNEOCPV00
     C0MAAF5  C2023 11 11.42970705 56 30.232+46 37 55.67   ~BBAq 23.12GVNEOCPV00
     C0MAAF5  C2023 11 11.43520705 56 28.032+46 38 19.93   ~BBAq 21.57GVNEOCPV00
     C0MAAF5 mC2023 11 11.48473005 56 08.390+46 41 51.60   ~BBC7 22.12GVNEOCPV00
     C0MAAF5 mC2023 11 11.48551405 56 08.010+46 41 54.60   ~BBC7       VNEOCPV00
     C0MAAF5 mC2023 11 11.48630005 56 07.800+46 41 57.90   ~BBC7       VNEOCPV00

Station data:
(V00) Kitt Peak-Bok  (N31.963125 W111.600190)  US/Arizona.  Observers T. A.
   Pruyne, B. M. Africano, E. J. Christensen, G. A. Farneth, D. C. Fuls, A.
   R. Gibbs, A. D. Grauer, H. Gröller, J. A. Johnson, R. A. Kowalski, S. M.
   Larson, G. J. Leonard, D. Rankin, R. L. Seaman, F. C. Shelly, K. W.
   Wierzchoś. 2.25-m reflector + 4x4K mosaic CCD.

Orbital elements:  C0MAAF5
   Perihelion 2024 Jan 30.80804 +/- 105 TT = 19:23:34 (JD 2460340.30804)
Epoch 2023 Nov 11.0 TT = JDT 2460259.5   Earth MOID: 0.0650   Ve: 0.0655
M 222.97413331 +/- 100              Me: 0.0616                   AutoNEOCP
n   1.69569597 +/- 0.655            Peri.  188.61139 +/- 53
a   0.69647263 +/- 0.179            Node    40.91371 +/- 58
e   0.8083306 +/- 0.204             Incl.   19.11031 +/- 31
P   0.58/212.30d           H 23.37  G  0.15   U 12.5  SR
q 0.13349246 +/- 0.329    Q 1.25945280 +/- 1.53           (J2000 ecliptic)
From 7 observations 2023 Nov. 11 (97.3 min); mean residual 0".28
Residuals in arcseconds: 
231111 V00  .22+  .23-    231111 V00  .13-  .37+    231111 V00  .48+  .17-    
231111 V00  .20-  .20+    231111 V00  .13+  .23+    
231111 V00  .08+  .28-    231111 V00  .58-  .12-    

Ephemerides (geocentric):
Date (UTC) HH   RA             Dec           delta  r     elong  mag " sig PA
---- --------  ------------   ------------  ------ ------ -----  --- --------
2023 11 21 07  03 50 03.441   +58 53 11.35  .21347 1.1615 140.9 21.7  34d 139
2023 11 21 08  03 49 08.187   +58 55 22.80  .21326 1.1612 140.9 21.7  34d 139
2023 11 21 09  03 48 12.705   +58 57 32.90  .21304 1.1610 140.8 21.7  34d 139
2023 11 21 10  03 47 16.996   +58 59 41.66  .21283 1.1608 140.8 21.7  34d 139
2023 11 21 11  03 46 21.061   +59 01 49.05  .21262 1.1605 140.8 21.7  34d 139
2023 11 21 12  03 45 24.900   +59 03 55.05  .21241 1.1603 140.8 21.7  35d 139
2023 11 21 13  03 44 28.514   +59 05 59.65  .21220 1.1601 140.7 21.7  35d 139
2023 11 21 14  03 43 31.904   +59 08 02.85  .21199 1.1598 140.7 21.7  35d 139
2023 11 21 15  03 42 35.071   +59 10 04.61  .21179 1.1596 140.7 21.7  35d 139
2023 11 21 16  03 41 38.016   +59 12 04.93  .21158 1.1593 140.7 21.7  35d 140
2023 11 21 17  03 40 40.739   +59 14 03.79  .21137 1.1591 140.6 21.7  35d 140
2023 11 21 18  03 39 43.242   +59 16 01.18  .21117 1.1589 140.6 21.7  35d 140
2023 11 21 19  03 38 45.526   +59 17 57.07  .21097 1.1586 140.6 21.7  35d 140
2023 11 21 20  03 37 47.592   +59 19 51.47  .21077 1.1584 140.6 21.7  35d 140
2023 11 21 21  03 36 49.440   +59 21 44.35  .21057 1.1581 140.5 21.7  35d 140
2023 11 21 22  03 35 51.073   +59 23 35.69  .21037 1.1579 140.5 21.7  35d 140
2023 11 21 23  03 34 52.490   +59 25 25.48  .21017 1.1577 140.5 21.7  35d 140
2023 11 22 00  03 33 53.694   +59 27 13.71  .20997 1.1574 140.4 21.7  35d 140
2023 11 22 01  03 32 54.686   +59 29 00.37  .20978 1.1572 140.4 21.7  35d 140
2023 11 22 02  03 31 55.467   +59 30 45.42  .20958 1.1569 140.4 21.7  35d 140
2023 11 22 03  03 30 56.038   +59 32 28.88  .20939 1.1567 140.3 21.7  35d 140
2023 11 22 04  03 29 56.400   +59 34 10.70  .20920 1.1565 140.3 21.7  35d 140
2023 11 22 05  03 28 56.556   +59 35 50.89  .20901 1.1562 140.2 21.7  35d 140
2023 11 22 06  03 27 56.507   +59 37 29.43  .20882 1.1560 140.2 21.7  35d 140
2023 11 22 07  03 26 56.253   +59 39 06.30  .20863 1.1557 140.2 21.7  35d 140
2023 11 22 08  03 25 55.798   +59 40 41.49  .20844 1.1555 140.1 21.7  35d 141
2023 11 22 09  03 24 55.141   +59 42 14.98  .20825 1.1553 140.1 21.7  35d 141
2023 11 22 10  03 23 54.286   +59 43 46.76  .20807 1.1550 140.1 21.7  35d 141
2023 11 22 11  03 22 53.234   +59 45 16.82  .20788 1.1548 140.0 21.7  35d 141
2023 11 22 12  03 21 51.985   +59 46 45.14  .20770 1.1545 140.0 21.7  35d 141
2023 11 22 13  03 20 50.543   +59 48 11.70  .20752 1.1543 139.9 21.7  35d 141
2023 11 22 14  03 19 48.909   +59 49 36.49  .20734 1.1540 139.9 21.7  35d 141
2023 11 22 15  03 18 47.085   +59 50 59.51  .20716 1.1538 139.8 21.7  35d 141
2023 11 22 16  03 17 45.073   +59 52 20.72  .20698 1.1536 139.8 21.7  35d 141
2023 11 22 17  03 16 42.874   +59 53 40.13  .20680 1.1533 139.8 21.7  35d 141
2023 11 22 18  03 15 40.491   +59 54 57.71  .20663 1.1531 139.7 21.7  35d 141
2023 11 22 19  03 14 37.926   +59 56 13.46  .20645 1.1528 139.7 21.7  35d 141
2023 11 22 20  03 13 35.180   +59 57 27.35  .20628 1.1526 139.6 21.7  35d 141
2023 11 22 21  03 12 32.257   +59 58 39.38  .20611 1.1523 139.6 21.7  35d 141
2023 11 22 22  03 11 29.158   +59 59 49.53  .20593 1.1521 139.5 21.7  35d 141
2023 11 22 23  03 10 25.885   +60 00 57.78  .20576 1.1518 139.5 21.7  35d 141
2023 11 23 00  03 09 22.440   +60 02 04.13  .20560 1.1516 139.4 21.7  35d 141
2023 11 23 01  03 08 18.827   +60 03 08.57  .20543 1.1513 139.4 21.7  35d 141
2023 11 23 02  03 07 15.046   +60 04 11.07  .20526 1.1511 139.3 21.7  35d 141
2023 11 23 03  03 06 11.102   +60 05 11.63  .20510 1.1508 139.3 21.7  35d 141
2023 11 23 04  03 05 06.995   +60 06 10.23  .20493 1.1506 139.2 21.7  35d 141
2023 11 23 05  03 04 02.729   +60 07 06.86  .20477 1.1503 139.2 21.7  35d 141
2023 11 23 06  03 02 58.306   +60 08 01.51  .20461 1.1501 139.1 21.7  35d 142